Location: Unspecified
(0.0000°N, 0.0000°E)
Time: 07:22:55
(UTC+00:00)

Hubble Space Telescope - Visible Passes

Search period start: 17 February 2020 00:00
Search period end: 27 February 2020 00:00
Orbit: 536 x 540 km, 28.5° (Epoch: 16 February)

Date Brightness Start Highest point End Pass type
(mag) Time Alt. Az. Time Alt. Az. Time Alt. Az.
17 Feb 2.8 04:11:44 25° ENE 04:11:44 25° ENE 04:13:56 10° E visible
18 Feb 3.2 04:02:01 21° E 04:02:01 21° E 04:03:32 10° ESE visible
18 Feb 2.2 05:37:22 10° W 05:40:41 24° SSW 05:44:05 10° SSE visible
19 Feb 3.7 03:52:17 15° ESE 03:52:17 15° ESE 03:53:01 10° ESE visible
19 Feb 2.6 05:27:38 11° WSW 05:30:06 18° SSW 05:32:57 10° SSE visible
20 Feb 3.0 05:17:51 11° SW 05:19:32 13° SSW 05:21:34 10° S visible
